STARLINK-2618, 48693

Orbit data source: Space-Track

STARLINK-2618, 48693 is a payload satellite owned by SpaceX/Seattle (US) in LEO that was launched on Wed, 26 May 2021 UTC via an FALCON 9 launch vehicle from the Air Force Eastern Test Range (AFETR). Payload-class satellites include a variety of spacecraft equipped with specific instruments for various scientific and technological missions. These include communications satellites like Starlink; space stations such as the ISS; scientific satellites like the Hubble; Earth observation satellites from companies like Planet Labs, Umbra, and HawkEye 360; GPS; miniature CubeSats for education and research; and military/defense satellites.

Loading next visibility...
Identifier
48693, 2021-044BH
Orbit
LEO
Country
Flag of USUS
Related business
Manufacturer
SpaceX/Seattle
Mission
Operational Commercial Communications
Bus & Motor
STARLINK, Unknown motor
Mass
260 kg wet, ~248 kg dry
Launch date (UTC)
2021-05-26 (5 years ago)
Launch vehicle
FALCON 9
Launch site
Air Force Eastern Test Range (AFETR)
Object type
Payload
Rocket body
Debris
Shape & HBR
Box + 1 Pan, 10.1 m
Radar Cross Section
13.562 m², Large (>1 m²)

Expand to show TLE details & history
Last TLE update: 1 day ago

TLE from 1 day ago
0 STARLINK-2618
1 48693U 21044BH  25348.60718743  .00000977  00000-0  84479-4 0  9998
2 48693  53.0551 103.5683 0001015  74.9129 285.1972 15.06400959251445
Epoch: 2025-12-14T14:34Z
TLE epoch observation values (Epoch: 2025-12-14T14:34:20.993Z)
Latitude
-0.00006°
Longitude
161.4631°
Altitude
547.904 km
Speed
7.589 km/s
True Right ascension
06h 54m 16s
True Declination
0° 00' 00"
Sunlit
Object was in full shadow at epoch
Visualization orbit readout
Latitude
Unknown
Longitude
Unknown
Altitude
Unknown
Speed
Unknown
Apparent Right ascension
Unknown
Apparent Declination
Unknown
Sunlit
N/A
Visualization observer readout
Local Sidereal Time
13:19:52
Azimuth
Unknown
Elevation
Unknown
Doppler factor
Unknown
Orbital elements
Apogee altitude
548.182 km
Perigee altitude
546.776 km
Semi-major axis
6,925.616 km
Eccentricity
0.0001
Inclination
53.0551°
RAAN
103.5683°
Arg. of periapsis
74.9129°
True anomaly
285.18598°
Mean anomaly
285.1972°
Eccentric anomaly
285.19159°
Mean motion
3.76579 °/min
Orbital period
95.6 mins
BSTAR
0.000084479
Loading maneuver chart data...
Computing Atmospheric mass density...
Loading historical data...
Loading historical data...
Loading historical data...
Loading historical data...
Loading historical data...
Loading historical data...
Loading historical data...

Documentation

Showing up to 5 results
|